This demonstration page uses our WeatherBlox Daily Observations layout. Learn more.

Left ArrowRight Arrow

39.08367, -84.50855

Hourly Observations for December 17, 2020

Temp ( °F °C ) Dew Point ( °F °C ) Humidity (%) Winds ( mph kmh ) Pressure ( in mb ) Visibility ( mi km ) Precip ( " mm )
12:14 am 00:14 Cloudy with Haze 33 0.6 28 -2.2 82 82 WNW 5 7 30.02 1016 6 10 N/A
12:53 am 00:53 Cloudy 32 undefined 27 -2.8 82 82 W 8 13 30.01 1016 7 11 N/A
1:53 am 01:53 Cloudy 32 undefined 27 -2.8 82 82 WNW 8 13 30.01 1016 7 11 N/A
2:53 am 02:53 Cloudy 31 -0.6 26 -3.3 82 82 W 12 19 30.04 1017 9 14 N/A
3:11 am 03:11 Cloudy 31 -0.6 26 -3.3 82 82 W 9 15 30.07 1018 9 14 N/A
3:53 am 03:53 Cloudy 31 -0.6 26 -3.3 82 82 WNW 8 13 30.05 1018 8 13 N/A
4:53 am 04:53 Cloudy 31 -0.6 26 -3.3 82 82 W 7 11 30.06 1018 8 13 N/A
5:53 am 05:53 Cloudy 32 undefined 26 -3.3 79 79 NW 7 11 30.08 1019 8 13 N/A
6:01 am 06:01 Cloudy 31 -0.6 26 -3.3 82 82 W 6 9 30.10 1019 7 11 N/A
6:30 am 06:30 Cloudy 32 undefined 26 -3.3 79 79 VRB 7 11 30.10 1019 8 13 N/A
6:53 am 06:53 Cloudy 31 -0.6 26 -3.3 82 82 W 8 13 30.09 1019 8 13 N/A
7:53 am 07:53 Cloudy 31 -0.6 27 -2.8 85 85 W 7 11 30.10 1019 7 11 N/A
8:53 am 08:53 Cloudy with Haze 32 undefined 27 -2.8 82 82 W 3 6 30.12 1020 6 10 N/A
9:53 am 09:53 Cloudy with Haze 32 undefined 27 -2.8 82 82 W 7 11 30.14 1021 6 10 N/A
10:53 am 10:53 Cloudy 32 undefined 27 -2.8 82 82 W 7 11 30.15 1021 7 11 N/A
11:53 am 11:53 Cloudy with Haze 33 0.6 27 -2.8 78 78 W 8 13 30.14 1021 6 10 N/A
12:53 pm 12:53 Cloudy 33 0.6 27 -2.8 78 78 WSW 6 9 30.13 1020 7 11 N/A
1:53 pm 13:53 Cloudy 34 1.1 27 -2.8 76 76 WSW 8 13 30.12 1020 8 13 N/A
2:53 pm 14:53 Cloudy 34 1.1 28 -2.2 79 79 WSW 9 15 30.14 1021 8 13 N/A
3:53 pm 15:53 Cloudy with Haze 34 1.1 27 -2.8 76 76 WNW 8 13 30.17 1022 6 10 N/A
4:53 pm 16:53 Cloudy with Light Snow 33 0.6 27 -2.8 78 78 WNW 7 11 30.19 1023 4 6 0.00 0.00
5:53 pm 17:53 Cloudy with Light Snow 33 0.6 28 -2.2 82 82 W 6 9 30.21 1023 6 10 0.00 0.00
6:53 pm 18:53 Cloudy 33 0.6 28 -2.2 82 82 W 7 11 30.23 1024 8 13 0.00 0.00
7:53 pm 19:53 Cloudy 33 0.6 28 -2.2 82 82 W 10 17 30.25 1025 9 14 N/A
8:53 pm 20:53 Cloudy 33 0.6 28 -2.2 82 82 WNW 6 9 30.27 1025 7 11 N/A
9:53 pm 21:53 Cloudy 33 0.6 27 -2.8 78 78 N N/A 30.28 1025 9 14 N/A
10:53 pm 22:53 Cloudy 33 0.6 27 -2.8 78 78 WNW 7 11 30.29 1026 9 14 N/A
11:53 pm 23:53 Cloudy 33 0.6 27 -2.8 78 78 W 5 7 30.31 1026 9 14 N/A

Powered by AerisWeather